Lid_Strength_Index
1 1 1 2 2 3 6 9 10 3 3 9 9 11 9 8 8 7 7 8 9 11 11 12 12 12 10 7 8 11 10 13 16 14 10 9 11 13 13 18 18 17 17 17
1 1 2 2 2 3 7 11 10 4 4 12 11 9 8 7 7 8 8 9 8 9 11 13 10 10 8 7 8 10 10 14 17 16 13 11 12 12 13 13 14 17 19 17
1 1 2 2 2 2 6 9 10 8 7 8 10 10 9 9 7 8 8 9 8 10 11 10 11 10 8 7 8 6 8 13 15 18 16 13 15 12 12 13 17 17 16 15
1 1 2 2 2 2 6 8 9 9 11 10 10 10 10 9 9 8 7 9 9 11 13 12 12 10 9 8 7 10 12 15 13 13 12 12 12 12 12 14 13 16 14 13
0 1 2 1 2 2 6 9 11 9 10 9 9 10 10 9 9 9 9 10 10 11 12 12 13 12 12 12 10 12 12 15 14 15 12 12 13 12 11 11 11 12 12 12
0 1 2 2 1 3 7 6 7 9 9 9 10 10 9 8 9 8 8 9 10 11 11 10 10 10 10 10 11 12 13 14 15 17 13 13 16 13 12 12 11 11 15 12
1 1 2 2 1 1 4 6 6 8 11 10 9 7 8 9 9 10 9 9 10 8 8 9 10 12 11 11 11 10 13 14 15 17 15 20 13 9 9 11 11 11 11 10
1 1 1 2 2 1 5 5 6 8 11 9 8 8 9 9 9 9 9 8 8 8 10 13 15 14 13 11 10 11 11 12 15 17 18 14 12 11 12 13 12 9 10 9
1 1 1 1 2 1 5 5 4 7 9 10 7 9 9 11 11 10 8 8 8 9 12 13 17 18 14 14 13 9 10 9 13 15 18 20 13 10 8 9 16 9 9 9
1 1 1 1 1 1 4 5 4 6 9 8 7 9 10 10 11 12 10 10 10 11 15 16 17 16 12 16 16 15 15 14 15 16 17 15 10 8 7 16 14 9 8 8
1 1 1 1 1 1 4 5 4 6 8 7 6 7 9 9 11 12 11 12 11 13 16 15 16 16 14 15 13 14 15 15 15 15 17 18 8 8 13 10 9 8 8 8
1 2 2 1 1 1 2 6 4 4 7 8 5 6 6 7 7 10 12 12 12 12 14 15 15 15 15 15 18 11 15 13 15 14 14 9 7 8 6 7 8 8 8 8
2 2 2 1 2 1 2 6 5 6 8 8 7 8 5 5 6 7 11 11 10 11 11 13 15 16 15 18 16 14 12 9 12 12 10 9 7 6 6 7 7 6 7 9
2 2 2 2 2 1 2 5 5 7 9 10 8 5 6 4 5 6 7 8 9 11 12 14 15 16 13 16 15 15 12 12 12 11 9 8 7 7 7 6 6 7 8 9
2 2 1 2 2 1 2 3 3 5 8 12 9 6 5 4 4 5 5 7 9 12 13 15 16 15 15 14 14 15 12 12 14 14 10 9 9 7 6 8 8 8 9 9
2 1 1 2 2 1 4 7 5 2 6 10 11 7 5 4 4 5 6 7 8 9 10 12 12 12 13 16 16 12 10 8 8 10 8 7 7 6 6 7 8 7 8 8
1 1 2 2 2 3 6 7 5 3 6 8 12 10 6 4 6 8 8 9 10 10 11 12 13 14 11 11 14 11 9 9 7 6 7 8 7 8 6 6 7 6 7 8
1 1 2 2 2 2 4 3 2 3 7 9 12 11 7 5 8 9 8 9 9 11 11 11 13 13 11 15 12 10 8 7 6 5 6 6 7 6 6 6 7 8 9 8
2 2 2 2 3 5 5 2 3 4 7 11 12 13 12 6 7 9 8 8 11 9 13 11 11 12 14 11 10 9 8 7 6 6 6 6 6 7 7 8 8 9 9 9
2 3 4 7 4 1 2 5 7 8 8 10 11 9 11 7 8 9 9 9 11 12 11 9 13 14 10 9 8 8 6 5 6 7 9 9 8 8 8 9 8 9 9 9
4 5 7 4 2 5 6 9 10 10 13 11 11 10 10 7 9 10 10 11 10 13 12 11 12 13 10 6 5 6 6 6 6 7 7 8 8 8 9 9 8 9 9 11
4 4 3 4 6 8 10 11 10 11 12 10 11 11 9 9 8 10 10 11 10 14 9 11 13 10 7 6 8 7 7 7 7 6 7 8 8 8 9 9 9 10 10 11
3 6 8 9 9 12 12 13 12 12 10 9 10 10 8 9 8 10 9 11 12 9 12 13 11 8 6 7 8 8 8 7 7 7 7 7 7 7 8 10 10 10 11 11
8 10 12 11 12 11 11 11 9 8 7 8 8 9 9 9 11 10 12 9 10 13 15 14 10 7 6 9 8 8 9 8 8 8 7 8 8 8 9 9 10 10 10 10
9 9 12 10 8 7 7 6 7 6 6 8 9 9 8 9 10 10 11 12 14 13 13 11 9 8 9 9 9 9 9 9 8 7 8 8 8 10 9 9 10 10 10 11
8 9 9 8 8 8 8 8 7 5 7 7 8 11 13 11 10 12 13 13 17 13 10 9 9 10 10 10 9 9 8 8 8 6 8 8 9 9 9 9 10 11 11 11
8 9 7 8 9 9 8 6 6 4 7 10 11 12 12 10 11 12 12 12 10 8 8 8 10 10 10 9 8 8 8 8 9 8 8 9 9 9 10 11 11 11 11 12